Regional Weather Roundup
Issued by NWS Lake Charles, LA

Home | Current Version | Previous Version | Text Only | Print | Product List | Glossary On
Versions: 1 2 3 4 5 6 7 8 9 10 11 12 13 14 15 16 17 18 19 20 21 22 23 24 25 26 27 28 29 30 31 32 33 34 35 36 37 38 39 40 41 42 43 44 45 46 47 48 49 50
000
ASUS44 KLCH 300310
RWRLCH
RWRLCH
REGIONAL WEATHER ROUNDUP
NATIONAL WEATHER SERVICE LAKE CHARLES LA
1000 PM CDT SAT AUG 29 2015

Note: "fair" indicates few or no clouds below 12,000 feet with no
significant weather and/or obstructions to visibility.


ACROSS SOUTHEAST TEXAS

CITY           SKY/WX    TMP DP  RH WIND       PRES   REMARKS
BEAUMONT       CLEAR     74  69  85 SW5       30.00R
BEAUMONT CITY    N/A     72  68  86 CALM      30.01R
ORANGE         CLEAR    N/A N/A N/A CALM      30.02R
JASPER         LGT RAIN  75  70  84 CALM      30.03R
$$

ACROSS CENTRAL LOUISIANA

CITY           SKY/WX    TMP DP  RH WIND       PRES   REMARKS
LEESVILLE      CLEAR     78  65  64 S3        29.99R
FULLERTON        N/A     74  64  71 CALM      29.98R
ALEXANDRIA INT PTCLDY    78  66  66 CALM      29.98R
ESLER FIELD    MOCLDY    76  65  68 CALM      30.00R
DERIDDER       CLOUDY    76  64  66 CALM      30.02R
OAKDALE          N/A     71  69  93 CALM      30.00R
OPELOUSAS        N/A     73  68  85 W3        30.01R
$$

ACROSS SOUTHWEST AND SOUTH CENTRAL LOUISIANA

CITY           SKY/WX    TMP DP  RH WIND       PRES   REMARKS
SULPHUR        CLEAR     76  69  79 CALM      30.02R
LAKE CHARLES   CLEAR     73  68  84 CALM      30.01R
CHENNAULT INT  CLEAR     79  66  65 SW3       30.01
CAMERON PHI    CLEAR     81  68  65 SW6       30.04R
DEQUINCY         N/A     72  68  87 CALM      30.01R
JENNINGS         N/A     76  70  81 SW3       30.01R
LAFAYETTE      CLEAR     78  68  71 SW5       30.01R
NEW IBERIA     CLEAR     76  69  79 SW5       30.02R
ABBEVILLE        N/A     75  69  81 CALM      30.02R
PATTERSON      CLEAR     73  68  83 CALM      30.02R
SALT POINT       N/A     80  69  69 CALM      30.00R
$$

SELECTED SITES ACROSS THE REGION

CITY           SKY/WX    TMP DP  RH WIND       PRES   REMARKS
HOUSTON BUSH   PTCLDY    79  65  62 S5        30.00R
HOUSTON HOBBY  MOCLDY    77  65  66 SE3       30.00R
GALVESTON      PTCLDY    81  65  58 SE5       30.01R
COLLEGE STAT   CLEAR     80  66  62 CALM      30.00R
CONROE         CLEAR     76  64  66 SE5       30.01R
HUNTSVILLE     CLEAR     82  63  52 S6        30.00R
LUFKIN         PTCLDY    77  63  61 S3        30.00R
SHREVEPORT     MOCLDY    82  65  56 CALM      29.98R
MONROE         PTCLDY    77  67  71 CALM      30.00R
NATCHEZ MS     PTCLDY    75  68  78 S3        30.02R
BATON ROUGE    CLEAR     75  68  78 CALM      30.01R
N.O. INTL ARPT PTCLDY    79  68  69 S6        30.02R
SLIDELL        PTCLDY    74  71  91 CALM      30.02R
$$

MARINE REPORTS

STATION/POSITION TIME  TEMP    WIND        PRES    VSBY  WAVE
                       AIR SEA DIR/SP/G                  HT/PER
                 (UTC) (F)     (DEG/KT/KT) (MB)    (MI)  (FT/S)
BUOY 30 S HIGH I 0250   83 86  140/  4/  6 1015.8R         1
SEA RIM ST PARK  0300   82     160/  5/  7 1016.7R
PORT ARTHUR      NOT AVBL
SABINE PASS N    NOT AVBL
TEXAS POINT      NOT AVBL
CALCASIEU PASS   NOT AVBL
LK CHARLES BEACH NOT AVBL
MARSH ISLAND     0200   84     190/  5/  8   N/A           0
FRESH WATER LOCK NOT AVBL
AMERADA PASS     NOT AVBL
$$


USA.gov is the U.S. government's official web portal to all federal, state and local government web resources and services.